User: anonymous   Login
Location: Unspecified
(0.0000°N, 0.0000°E)
Time: 21:55:02
(UTC+00:00)
Language:

USA 225 - Orbit

View from above orbital plane
View from above orbital plane
View from above satellite
View from above satellite

Ground track
Ground track

The orbit data is extracted from the following two-line orbital elements,

1 37364U 11006A   24139.03649423 0.00000000  00000-0  00000-0 0    04
2 37364  90.1728  75.8923 0016472  55.9513 304.0486 13.11813572    01
Epoch (UTC): 18 May 2024 00:52:33
Eccentricity: 0.0016472
inclination: 90.1728°
perigee height: 1203 km
apogee height: 1228 km
right ascension of ascending node: 75.8923°
argument of perigee: 55.9513°
revolutions per day: 13.11813572
mean anomaly at epoch: 304.0486°
orbit number at epoch: 0

The dashed part of the orbit path shows where the satellite is in the earth's shadow,  

DLR